When you browse on this site, cookies collect data to enhance your experience and personalize the content and advertising you see.
Visit our Privacy Policy to learn more. By continuing to use the site, you agree to this use of cookies and data.
  • In Lithuania
  • List of Countries
  • For 7 days
  • Water Temperature
  • Weather Map
  • Weather Widgets
  • user-avatar
    Login

    Hourly Weather Kaprun

    Today, 3 June, Wednesday

    Time Temperature Precipitation Wind Pressure Humidity
    00:00 +2°C° 0 mm 1 mps 593 mmHg 87%
    01:00 +2°C° 0 mm 1 mps 593 mmHg 87%
    02:00 +2°C° 0 mm 1 mps 593 mmHg 84%
    03:00 +2°C° 0 mm 1 mps 592 mmHg 81%
    04:00 +2°C° 0 mm 1 mps 592 mmHg 78%
    05:00 +4°C° 0 mm 1 mps 593 mmHg 73%
    06:00 +6°C° 0 mm 1 mps 594 mmHg 68%
    07:00 +8°C° 0 mm 1 mps 594 mmHg 63%
    08:00 +10°C° 0 mm 1 mps 595 mmHg 55%
    09:00 +12°C° 0 mm 1 mps 595 mmHg 47%
    10:00 +14°C° 0 mm 1 mps 596 mmHg 39%
    11:00 +14°C° 0 mm 1 mps 595 mmHg 37%
    12:00 +15°C° 0 mm 1 mps 595 mmHg 35%
    13:00 +15°C° 0 mm 1 mps 595 mmHg 32%
    14:00 +15°C° 0.1 mm 1 mps 595 mmHg 37%
    15:00 +14°C° 0.1 mm 1 mps 594 mmHg 41%
    16:00 +14°C° 0.1 mm 1 mps 593 mmHg 45%
    17:00 +12°C° 0.2 mm 1 mps 592 mmHg 55%
    18:00 +10°C° 0.2 mm 1 mps 591 mmHg 65%
    19:00 +9°C° 0.2 mm 1 mps 591 mmHg 75%
    20:00 +8°C° 0 mm 1 mps 590 mmHg 76%
    21:00 +6°C° 0 mm 2 mps 590 mmHg 77%
    22:00 +5°C° 0 mm 2 mps 590 mmHg 78%
    23:00 +5°C° 0 mm 2 mps 589 mmHg 80%

    Tomorrow, 4 June, Thursday

    Time Temperature Precipitation Wind Pressure Humidity
    00:00 +4°C° 0 mm 2 mps 589 mmHg 82%
    01:00 +4°C° 0 mm 2 mps 589 mmHg 83%
    02:00 +4°C° 0 mm 2 mps 588 mmHg 85%
    03:00 +4°C° 0 mm 2 mps 588 mmHg 87%
    04:00 +3°C° 0 mm 2 mps 588 mmHg 89%
    05:00 +5°C° 0 mm 2 mps 588 mmHg 86%
    06:00 +6°C° 0 mm 2 mps 588 mmHg 82%
    07:00 +7°C° 0 mm 2 mps 589 mmHg 78%
    08:00 +8°C° 0.1 mm 2 mps 589 mmHg 74%
    09:00 +9°C° 0.1 mm 2 mps 590 mmHg 70%
    10:00 +12°C° 0.1 mm 2 mps 590 mmHg 65%
    11:00 +10°C° 0.2 mm 2 mps 590 mmHg 69%
    12:00 +10°C° 0.2 mm 2 mps 589 mmHg 72%
    13:00 +10°C° 0.2 mm 2 mps 589 mmHg 75%
    14:00 +9°C° 0.6 mm 2 mps 588 mmHg 80%
    15:00 +8°C° 0.6 mm 3 mps 587 mmHg 85%
    16:00 +7°C° 0.6 mm 3 mps 587 mmHg 90%
    17:00 +7°C° 0.4 mm 3 mps 586 mmHg 90%
    18:00 +6°C° 0.4 mm 2 mps 586 mmHg 91%
    19:00 +6°C° 0.4 mm 2 mps 586 mmHg 92%
    20:00 +5°C° 0.7 mm 2 mps 585 mmHg 94%
    21:00 +5°C° 0.7 mm 2 mps 585 mmHg 95%
    22:00 +5°C° 0.7 mm 1 mps 585 mmHg 97%
    23:00 +5°C° 2.8 mm 1 mps 585 mmHg 97%

    Day after tomorrow, 5 June, Friday

    Time Temperature Precipitation Wind Pressure Humidity
    00:00 +5°C° 2.8 mm 1 mps 584 mmHg 98%
    01:00 +4°C° 2.8 mm 1 mps 584 mmHg 98%
    02:00 +4°C° 3.4 mm 1 mps 583 mmHg 98%
    03:00 +3°C° 3.4 mm 1 mps 583 mmHg 98%
    04:00 +1°C° 3.4 mm 2 mps 583 mmHg 98%
    05:00 +1°C° 2.6 mm 2 mps 583 mmHg 98%
    06:00 +2°C° 2.6 mm 1 mps 583 mmHg 98%
    07:00 +2°C° 2.6 mm 1 mps 584 mmHg 98%
    08:00 +3°C° 1.4 mm 1 mps 584 mmHg 98%
    09:00 +3°C° 1.4 mm 1 mps 585 mmHg 98%
    10:00 +3°C° 1.4 mm 1 mps 585 mmHg 97%
    11:00 +3°C° 1 mm 1 mps 585 mmHg 97%
    12:00 +3°C° 1 mm 1 mps 585 mmHg 97%
    13:00 +3°C° 1 mm 2 mps 586 mmHg 97%
    14:00 +4°C° 0.2 mm 1 mps 586 mmHg 94%
    15:00 +4°C° 0.2 mm 1 mps 586 mmHg 91%
    16:00 +5°C° 0.2 mm 1 mps 586 mmHg 89%
    17:00 +5°C° 0.1 mm 1 mps 587 mmHg 90%
    18:00 +4°C° 0.1 mm 1 mps 587 mmHg 91%
    19:00 +3°C° 0.1 mm 0 mps 587 mmHg 92%
    20:00 +3°C° 0 mm 1 mps 587 mmHg 92%
    21:00 +2°C° 0 mm 1 mps 587 mmHg 92%
    22:00 +1°C° 0 mm 1 mps 587 mmHg 91%
    23:00 +1°C° 0 mm 1 mps 587 mmHg 91%

    6 June, Saturday

    Time Temperature Precipitation Wind Pressure Humidity
    00:00 -2°C° 0 mm 2 mps 587 mmHg 91%
    01:00 -2°C° 0 mm 2 mps 587 mmHg 90%
    02:00 -2°C° 0 mm 2 mps 587 mmHg 91%
    03:00 -2°C° 0 mm 2 mps 588 mmHg 91%
    04:00 -1°C° 0 mm 2 mps 588 mmHg 91%
    05:00 +1°C° 0 mm 2 mps 589 mmHg 89%
    06:00 +3°C° 0 mm 2 mps 590 mmHg 87%
    07:00 +5°C° 0 mm 2 mps 591 mmHg 84%
    08:00 +6°C° 0 mm 2 mps 591 mmHg 80%
    09:00 +8°C° 0 mm 3 mps 592 mmHg 75%
    10:00 +9°C° 0 mm 3 mps 593 mmHg 70%
    11:00 +9°C° 0.2 mm 3 mps 593 mmHg 73%
    12:00 +9°C° 0.2 mm 3 mps 593 mmHg 75%
    13:00 +9°C° 0.2 mm 3 mps 593 mmHg 77%
    14:00 +9°C° 0.4 mm 2 mps 593 mmHg 81%
    15:00 +9°C° 0.4 mm 2 mps 592 mmHg 84%
    16:00 +8°C° 0.4 mm 2 mps 592 mmHg 88%
    17:00 +7°C° 0.4 mm 2 mps 592 mmHg 91%
    18:00 +7°C° 0.4 mm 1 mps 592 mmHg 94%
    19:00 +6°C° 0.4 mm 1 mps 591 mmHg 97%
    20:00 +6°C° 0.2 mm 1 mps 592 mmHg 97%
    21:00 +6°C° 0.2 mm 1 mps 592 mmHg 97%
    22:00 +6°C° 0.2 mm 1 mps 592 mmHg 98%
    23:00 +5°C° 0.2 mm 1 mps 592 mmHg 98%

    7 June, Sunday

    Time Temperature Precipitation Wind Pressure Humidity
    00:00 +5°C° 0.2 mm 1 mps 591 mmHg 98%
    01:00 +4°C° 0.2 mm 2 mps 591 mmHg 98%
    02:00 +5°C° 0.2 mm 1 mps 591 mmHg 98%
    03:00 +5°C° 0.2 mm 1 mps 591 mmHg 98%
    04:00 +5°C° 0.2 mm 1 mps 591 mmHg 98%
    05:00 +5°C° 0.7 mm 1 mps 591 mmHg 98%
    06:00 +5°C° 0.7 mm 1 mps 591 mmHg 98%
    07:00 +5°C° 0.7 mm 1 mps 592 mmHg 98%
    08:00 +5°C° 0.7 mm 1 mps 592 mmHg 98%
    09:00 +6°C° 0.7 mm 1 mps 592 mmHg 98%
    10:00 +6°C° 0.7 mm 1 mps 593 mmHg 98%
    11:00 +5°C° 0.5 mm 2 mps 593 mmHg 98%
    12:00 +5°C° 0.5 mm 2 mps 593 mmHg 98%
    13:00 +5°C° 0.5 mm 2 mps 593 mmHg 98%
    14:00 +5°C° 0.7 mm 2 mps 593 mmHg 98%
    15:00 +4°C° 0.7 mm 2 mps 593 mmHg 97%
    16:00 +4°C° 0.7 mm 2 mps 593 mmHg 97%
    17:00 +3°C° 0.9 mm 2 mps 593 mmHg 98%
    18:00 +4°C° 0.9 mm 1 mps 593 mmHg 98%
    19:00 +3°C° 0.9 mm 1 mps 593 mmHg 99%
    20:00 +3°C° 1 mm 1 mps 593 mmHg 99%
    21:00 +3°C° 1 mm 1 mps 593 mmHg 99%
    22:00 +3°C° 1 mm 1 mps 593 mmHg 99%
    23:00 +3°C° 1.2 mm 1 mps 593 mmHg 99%

    8 June, Monday

    Time Temperature Precipitation Wind Pressure Humidity
    00:00 +3°C° 1.2 mm 1 mps 593 mmHg 99%
    01:00 +3°C° 1.2 mm 1 mps 593 mmHg 99%
    02:00 +3°C° 0.6 mm 1 mps 592 mmHg 99%
    03:00 +3°C° 0.6 mm 1 mps 592 mmHg 99%
    04:00 +3°C° 0.6 mm 1 mps 592 mmHg 99%
    05:00 +2°C° 0.7 mm 1 mps 592 mmHg 99%
    06:00 +2°C° 0.7 mm 1 mps 592 mmHg 98%
    07:00 +2°C° 0.7 mm 1 mps 592 mmHg 98%
    08:00 +2°C° 0.7 mm 1 mps 592 mmHg 98%
    09:00 +2°C° 0.7 mm 1 mps 592 mmHg 98%
    10:00 +2°C° 0.7 mm 1 mps 592 mmHg 97%
    11:00 +1°C° 1 mm 2 mps 592 mmHg 97%
    12:00 +1°C° 1 mm 2 mps 593 mmHg 97%
    13:00 +1°C° 1 mm 2 mps 593 mmHg 97%
    14:00 +1°C° 1 mm 2 mps 593 mmHg 95%
    15:00 +3°C° 1 mm 1 mps 593 mmHg 93%
    16:00 +3°C° 1 mm 1 mps 593 mmHg 91%
    17:00 +3°C° 0.1 mm 1 mps 593 mmHg 91%
    18:00 +3°C° 0.1 mm 1 mps 593 mmHg 92%
    19:00 +3°C° 0.1 mm 1 mps 594 mmHg 92%
    20:00 +2°C° 0 mm 1 mps 594 mmHg 89%
    21:00 -1°C° 0 mm 2 mps 593 mmHg 86%
    22:00 -2°C° 0 mm 2 mps 593 mmHg 83%
    23:00 -2°C° 0 mm 2 mps 593 mmHg 83%
    Show more